星链-1474 (STARLINK-1474 )

导读 | 豆包AI

STARLINK-1474是美国太空探索技术公司(SpaceX)星链星座的成员,于2020年6月13日发射入轨,属于星链计划部署的低轨互联网卫星。这类卫星运行在近地轨道,旨在为全球提供高速低延迟宽带互联网服务,尤其覆盖偏远与网络基础设施薄弱区域,是全球大规模低轨卫星星座建设中的一颗卫星。

Basic Information
目录编号:
45738
目录名称:
STARLINK-1474
国际标识:
2020-038J
轨道中心:
EARTH
卫星名称:
星链-1474
卫星全名:
星链-1474 (STARLINK-1474 )
卫星状态:
已陨落 最后检测时间 2026-02-23
发射日期:
2020-06-13 UTC
国别 :
美国 (US)
星等 :
--
Orbit Information
数据来源 国际轨道数据
星历时间: 2026-02-23T22:49:50+0800
轨道信息已过期18天
半长轴: 6529.306km
偏心率: 0.0005025
轨道倾角: 53.007°
近地点辐角 309.566°
升交点赤经 132.869°
平近点角 50.494°
近地点: 147.888km
远地点: 154.45km
周期: 87.511分钟
每日圈数: 16.455165
Detailed Information
固有亮度:
5
最大亮度:
2.5
卫星平台:
Starlink V1.0
覆盖范围:
全球
运营商:
太空探索技术公司
运营商所在国:
美国
制造商(研发单位):
太空探索技术公司
制造商所在国:
美国
使用方式:
暂无
Satellite Introduction
星链(Starlink)计划是由太空探索技术公司(SpaceX)提出的一个巨型低轨卫星互联网星座项目,计划在2019年至2024年间在太空搭建由约1.2万颗卫星组成的“星链”网络,其中1584颗将部署在地球上空550千米处的近地轨道,并从2020年开始工作。该卫星仍在工作。